Skip Page Navigation
NASA JPL Caltech
NASA Logo - Jet Propulsion Laboratory + View the NASA Portal
+ Center for Near-Earth Object Studies
JPL Home Earth Solar System Stars & Galaxies Technology
JPL Solar System Dynamics
BODIES ORBITS EPHEMERIDES TOOLS PHYSICAL DATA DISCOVERY FAQ SITE MAP
IMPORTANT: The SSD Announcement email list is now available. Major changes are coming in the near future, including possible hostname and/or URL changes. To be notified of such changes, subscribe to this email list.

Please visit this page for more details.


JPL Small-Body Database Browser
Search: [ help ]  
1049 Gotho (1925 RB)
Classification: Main-belt Asteroid          SPK-ID: 2001049
Ephemeris | Orbit Diagram | Orbital Elements | Mission Design | Physical Parameters | Discovery Circumstances | Close-Approach Data ]

[ show orbit diagram ]
Orbital Elements at Epoch 2459000.5 (2020-May-31.0) TDB
Reference: JPL 58 (heliocentric ecliptic J2000)
 Element Value Uncertainty (1-sigma)   Units 
e .1364699838047714 3.9748e-08  
a 3.093685813665909 1.2084e-08 au
q 2.671490560777871 1.2486e-07 au
i 15.10979969521412 3.9996e-06 deg
node 342.8396314044537 1.5433e-05 deg
peri 41.05079922746378 2.1133e-05 deg
M 116.2912912944682 1.4083e-05 deg
tp 2458358.466886541875
(2018-Aug-27.96688654)
7.6947e-05 TDB
period 1987.525620122852
5.44
1.1645e-05
3.188e-08
d
yr
n .1811297405956195 1.0612e-09 deg/d
Q 3.515881066553946 1.3733e-08 au
  Orbit Determination Parameters
   # obs. used (total)      2178  
   data-arc span      34447 days (94.31 yr)  
   first obs. used      1925-09-14  
   last obs. used      2020-01-06  
   planetary ephem.      DE431  
   SB-pert. ephem.      SB431-N16  
   condition code      0  
   norm. resid. RMS      .43196  
   source      ORB  
   producer      Otto Matic  
   solution date      2020-Jan-28 17:49:18  

Additional Information
 Earth MOID = 1.69155 au 
 Jupiter MOID = 2.0278 au 
 T_jup = 3.157 
[ show covariance matrix ]

Ephemeris | Orbit Diagram | Orbital Elements | Mission Design | Physical Parameters | Discovery Circumstances | Close-Approach Data ]

Physical Parameter Table
Parameter Symbol Value Units Sigma Reference Notes
absolute magnitude H 10.4   n/a MPO279524  
diameter diameter 56.296 km 0.204 urn:nasa:pds:neowise_diameters_albedos::2.0[mainbelt] (http://adsabs.harvard.edu/abs/2014ApJ...791..121M)  
rotation period rot_per 8.470 h n/a LCDB (Rev. 2019-August); Warner et al., 2009 Published Reference List:
[Albers, K.; Kragh, K.; Monnier, A.; Pligge, Z.; et al. (2010) Minor Planet Bull. 37, 152-158.]
[Ditteon, R.; Trent, L. (2018) Minor Planet Bull. 45, 328-329.]
geometric albedo albedo 0.008   0.001 urn:nasa:pds:neowise_diameters_albedos::2.0[mainbelt] (http://adsabs.harvard.edu/abs/2014ApJ...791..121M)  

1049 Gotho (1925 RB)          Discovered 1925-Sep-14 by Reinmuth, K. at Heidelberg
Reference: DISCOVERY.DBLast Updated: 2003-08-29

[ show close-approach data ]
Alternate Designations
 1925 RB = A906 DD 
Ephemeris | Orbit Diagram | Orbital Elements | Mission Design | Physical Parameters | Discovery Circumstances | Close-Approach Data ]
ABOUT SSD CREDITS/AWARDS PRIVACY/COPYRIGHT GLOSSARY LINKS
FirstGov 2020-Feb-18 03:53 UT
(server date/time)  
NASA Home Page
Site Manager:   Ryan S. Park
Webmaster  Alan B. Chamberlin